Hourly Data Report for October 16, 2014

All times are specified in Local Standard Time (LST). Add 1 hour to adjust for Daylight Saving Time where and when it is observed.

CAPE DORSET A
NUNAVUT

64°13'49.000" N
76°31'30.000" W
48.20 m
2400637
71366
YTE

Download Data

Hourly Data (October 2014)
Hourly Data Report for October 16, 2014
Temp Definition
°C
Dew Point Temp Definition
°C
Rel Hum Definition
%
Wind Dir Definition
10's deg

Wind Spd Definition
km/h
Visibility Definition
km
Stn Press Definition
kPa
Hmdx Definition


Wind Chill Definition


Weather Definition


TIME
00:00 Legend Double Dagger -2.9 -5.1 85 27 26 16.1 100.54   -10 LegendNANA
01:00 Legend Double Dagger -2.7 -4.6 87 27 18 16.1 100.54   -8 LegendNANA
02:00 Legend Double Dagger -3.0 -4.7 88 28 15 16.1 100.57   -8 LegendNANA
03:00 Legend Double Dagger -3.1 -5.0 87 29 15 16.1 100.58   -8 LegendNANA
04:00 Legend Double Dagger -3.5 -4.4 93 26 11 4.0 100.58   -8 Fog
05:00 Legend Double Dagger -3.5 -4.1 96 27 9 16.1 100.58   -7 LegendNANA
06:00 Legend Double Dagger -3.5 -5.1 89 30 15 16.1 100.55   -9 LegendNANA
07:00 Legend Double Dagger -3.8 -5.7 87 31 9 16.1 100.57   -8 LegendNANA
08:00 Legend Double Dagger -4.1 -5.7 89 29 11 16.1 100.57   -9 LegendNANA
09:00 Legend Double Dagger -4.2 -5.5 91 29 11 16.1 100.55   -9 Snow
10:00 Legend Double Dagger -4.1 -5.2 92 30 4 16.1 100.53   -6 LegendNANA
11:00 Legend Double Dagger -4.0 -5.6 89 30 5 16.1 100.51   -6 LegendNANA
12:00 Legend Double Dagger -4.4 -5.7 91   0 16.1 100.49     LegendNANA
13:00 Legend Double Dagger -4.3 -5.8 89 28 5 16.1 100.47   -6 LegendNANA
14:00 Legend Double Dagger -4.9 -6.3 90 26 5 16.1 100.46   -7 LegendNANA
15:00 Legend Double Dagger -3.4 -5.9 83 29 9 16.1 100.46   -7 LegendNANA
16:00 Legend Double Dagger -3.2 -5.4 85 30 11 16.1 100.47   -7 Snow
17:00 Legend Double Dagger -2.7 -4.9 85 31 18 16.1 100.48   -8 LegendNANA
18:00 Legend Double Dagger -2.9 -5.6 82 30 9 16.1 100.51   -6 Snow
19:00 Legend Double Dagger -3.0 -5.5 83   0 16.1 100.53     Snow
20:00 Legend Double Dagger -2.8 -4.5 88 26 11 16.1 100.52   -7 Snow
21:00 Legend Double Dagger -2.6 -3.4 94 28 11 16.1 100.53   -7 Snow
22:00 Legend Double Dagger -2.7 -3.7 93 27 13 16.1 100.55   -7 LegendNANA
23:00 Legend Double Dagger -3.1 -3.8 95 27 11 16.1 100.58   -7 LegendNANA

Notes on Data Quality.

Legend

  • E = Estimated
  • M = Missing
  • NA = Not Available
  • ‡ = Partner data that is not subject to review by the National Climate Archives
Date modified: